Showing default

JILIN-01 GAOFEN 3D 29, 52446

Orbit data source: Space-Track

JILIN-01 GAOFEN 3D 29, 52446 is a payload satellite owned by Changguang WJ (CN) in SSO that was launched on Thu, 05 May 2022 UTC via a CHANG ZHENG 2D launch vehicle from the Taiyaun Space Center, China (TSC). Payload-class satellites include a variety of spacecraft equipped with specific instruments for various scientific and technological missions. These include communications satellites like Starlink; space stations such as the ISS; scientific satellites like the Hubble; Earth observation satellites from companies like Planet Labs, Umbra, and HawkEye 360; GPS; miniature CubeSats for education and research; and military/defense satellites.

Loading next visibility...
Identifier
52446, 2022-048D
Orbit
SSO
Last TLE update
7 hours ago
Origin
Manufacturer
Changguang WJ
Mission
Operational Commercial Imaging
Bus & Motor
JL-1, Unknown motor
Mass
42 kg wet, 42 kg dry
Launch date (UTC)
2022-05-05 (3 years ago)
Launch vehicle
CHANG ZHENG 2D
Launch site
Taiyaun Space Center, China (TSC)
Object type
Payload
Rocket body
Debris
Shape & HBR
Box + 2 Pan, 1.5 m
Radar Cross Section
2.000 m², Medium (>0.1 m² and < 1m²)

Expand to show TLE details & history

TLE from 7 hours ago
0 JILIN-01 GAOFEN 3D 29
1 52446U 22048D   25186.19243391  .00019805  00000-0  54868-3 0  9998
2 52446  97.5728 277.2465 0004257 190.4101 169.7055 15.36997180175698
Epoch: 2025-07-05T04:37Z
TLE epoch observation values (Epoch: 2025-07-05T04:37:06.289Z)
Latitude
-0.00009°
Longitude
-75.4637°
Altitude
460.966 km
Speed
7.635 km/s
True Right ascension
18h 28m 59s
True Declination
0° 00' 00"
Sunlit
Object was in full shadow at epoch
Visualization orbit readout
Latitude
-54.38063°
Longitude
94.21405°
Altitude
474.073 km
Speed
7.629 km/s
Apparent Right ascension
09h 10m 46s
Apparent Declination
-56° 40' 26"
Sunlit
Object is in daylight
Visualization observer readout
Local Sidereal Time
23:47:40
Azimuth
136.629° SSE
Elevation
-59.608°
Doppler factor
1
Orbital elements
Apogee altitude
454.853 km
Perigee altitude
449.038 km
Semi-major axis
6,830.082 km
Eccentricity
0.00043
Inclination
97.5728°
RAAN
277.2465°
Arg. of periapsis
190.4101°
True anomaly
Unknown
Mean anomaly
169.7055°
Eccentric anomaly
Unknown
Mean motion
3.84507 °/min
Orbital period
93.63 mins
BSTAR
0.00054868
Loading maneuver chart data...
Loading SW <> Apogee altitude chart data...
Loading historical data...
Loading historical data...
Loading historical data...
Loading historical data...
Loading historical data...
Loading historical data...
Loading historical data...

JILIN-01 GAOFEN 3D 29 Visibility forecast

Observer location: undefined°, undefined°

Span
Click to sort rows by Start time (UTC) header in descending order
Start Az.
Max El. time (UTC)
Max El. Az.
Max El.
End time (UTC)
End Az.
6 mins2025-07-05 19:14:13.125Z359.626° N2025-07-05 19:17:13.125Z269.597° W37.669°2025-07-05 19:20:13.125Z208.764° SW
4 mins2025-07-06 05:46:13.125Z129.681° SE2025-07-06 05:48:13.125Z54.792° ENE32.337°2025-07-06 05:50:13.125Z8.592° NNE
|